Location: Branche des Alpilles
(43.6087°N, 4.6976°E)
Time: 17:38:31
(UTC+00:00)

BREEZE-M DEB (TANK) - Visible Passes

Search period start: 16 April 2021 00:00
Search period end: 26 April 2021 00:00
Orbit: 334 x 17123 km, 49.4° (Epoch: 15 April)

Date Brightness Start Highest point End Pass type
(mag) Time Alt. Az. Time Alt. Az. Time Alt. Az.
16 Apr 4.7 04:23:24 10° WNW 04:40:38 71° NNE 04:44:49 10° E visible
16 Apr 8.4 18:00:10 10° SE 19:17:31 27° ESE 19:45:20 10° ENE visible
16 Apr 6.7 23:30:12 10° SW 00:59:31 85° NNW 01:10:06 10° ENE visible
17 Apr 8.0 19:13:52 10° S 21:09:40 49° SE 21:33:35 10° ENE visible
18 Apr 5.9 02:05:48 10° W 02:46:42 67° N 02:53:22 10° ENE visible
18 Apr 7.5 21:01:12 10° SSW 23:01:55 73° SE 23:18:13 10° ENE visible
19 Apr 4.7 04:15:19 10° WNW 04:32:24 75° NNE 04:36:32 10° ESE visible
19 Apr 8.3 17:44:23 10° SSE 19:08:52 29° ESE 19:37:41 10° ENE visible
19 Apr 6.7 23:21:31 10° SW 00:51:15 83° NNW 01:01:46 10° ENE visible
20 Apr 8.0 19:01:02 10° S 21:01:16 52° SE 21:25:21 10° ENE visible
21 Apr 5.9 01:58:16 10° W 02:38:27 67° N 02:45:04 10° ENE visible
21 Apr 7.5 20:50:17 10° SSW 22:53:33 76° SE 23:09:51 10° ENE visible
22 Apr 4.6 04:07:09 10° WNW 04:24:04 80° NNE 04:28:10 10° ESE visible
22 Apr 8.3 17:28:54 10° SSE 19:00:09 31° ESE 19:29:51 10° ENE visible
22 Apr 6.7 23:12:56 10° SW 00:42:55 81° NNW 00:53:24 10° ENE visible
23 Apr 7.9 18:48:23 10° S 20:52:47 55° SE 21:17:03 10° ENE visible
24 Apr 5.9 01:50:39 10° W 02:30:09 67° N 02:36:42 10° E visible
24 Apr 7.5 20:39:26 10° SSW 22:45:07 79° SE 23:01:26 10° ENE visible
25 Apr 4.5 03:58:53 10° WNW 04:15:41 85° NNE 04:19:45 10° ESE visible
25 Apr 8.3 17:13:44 10° SSE 18:51:22 34° ESE 19:21:51 10° ENE visible
